EW4942 Nanaimo CA current weather conditions

sailwx.info

Wind from 065

Air temperature 14.4° C
Dewpoint 10.7° C

Last reported at 2020-Jul-08 04:00 UTC.
Time now 2020-Jul-08 04:43 UTC

Location: N 49°05' W 123°59'.
View on Google Maps.

See reports from other nearby stations

  
Tides and Currents Weather Stations Pressure Air Temp Water Temp Dewpoint Dewpoint Depression Visibility Wind Speed Wind Dir Waves Ship Positions
date/time (UTC)wind fromknots sea level pressurealtimeterstation pressurevisibilityair tempwater tempwave heightnotes
2020-Jul-08 04:00 065 14.4
2020-Jul-08 03:45 160 14.4
2020-Jul-08 03:31 160 15.0
2020-Jul-08 03:16 160 15.6
2020-Jul-08 03:01 160 16.1
2020-Jul-08 02:46 196 16.7
2020-Jul-08 02:30 205 16.7
2020-Jul-08 02:16 205 17.2
2020-Jul-08 02:01 159 17.2
2020-Jul-08 01:45 186 17.2
2020-Jul-08 01:31 200 0 gusting 3 17.8
2020-Jul-08 01:15 199 0 gusting 2 17.2
2020-Jul-08 01:01 195 16.7
2020-Jul-08 00:45 210 17.2
2020-Jul-08 00:30 158 16.7
2020-Jul-08 00:15 210 1 gusting 3 16.7
2020-Jul-08 00:00 188 0 gusting 2 16.7
2020-Jul-07 23:45 196 0 gusting 4 16.1
2020-Jul-07 23:30 167 0 gusting 5 16.7
2020-Jul-07 23:16 206 1 gusting 3 16.7
2020-Jul-07 23:00 184 17.2
2020-Jul-07 22:45 207 17.2
2020-Jul-07 22:30 205 1 gusting 3 16.7
2020-Jul-07 22:15 198 16.7
2020-Jul-07 22:00 196 15.6
2020-Jul-07 21:45 205 1 gusting 3 16.1
2020-Jul-07 21:30 206 0 gusting 3 15.6
2020-Jul-07 21:15 182 0 gusting 6 15.6
2020-Jul-07 21:01 217 0 gusting 4 15.6
2020-Jul-07 20:45 202 0 gusting 2 15.6
2020-Jul-07 20:30 129 15.6
2020-Jul-07 17:01 254 13.9
2020-Jul-07 16:45 285 13.9
2020-Jul-07 16:31 126 13.3
2020-Jul-07 16:16 296 0 gusting 3 13.3
2020-Jul-07 16:01 309 13.3
2020-Jul-07 13:15 240 12.8
2020-Jul-07 13:01 113 13.3
2020-Jul-07 12:45 301 13.3
2020-Jul-07 12:30 303 13.3
2020-Jul-07 12:15 256 13.3
2020-Jul-07 12:00 333 13.3
2020-Jul-07 11:45 028 13.3
2020-Jul-07 11:30 296 13.3
2020-Jul-07 11:00 304 13.3
2020-Jul-07 10:45 308 13.3
2020-Jul-07 10:30 343 13.3
2020-Jul-07 10:15 285 13.3
2020-Jul-07 10:00 047 0 gusting 5 13.3
2020-Jul-07 09:45 347 13.3
2020-Jul-07 09:30 307 13.9
2020-Jul-07 09:15 112 13.9
2020-Jul-07 09:00 285 13.9
2020-Jul-07 08:45 329 13.9
2020-Jul-07 08:30 129 13.9
2020-Jul-07 08:15 297 0 gusting 6 13.9
2020-Jul-07 08:00 301 13.9
2020-Jul-07 07:32 302 1 gusting 6 13.9
2020-Jul-07 07:17 025 0 gusting 5 13.9
2020-Jul-07 07:02 314 14.4
2020-Jul-07 06:46 293 14.4
2020-Jul-07 06:31 321 14.4
2020-Jul-07 06:17 306 0 gusting 4 14.4
2020-Jul-07 06:01 290 14.4
2020-Jul-07 05:48 331 0 gusting 3 14.4
2020-Jul-07 05:31 306 13.9
2020-Jul-07 05:16 321 13.3
2020-Jul-07 05:02 290 13.9
2020-Jul-07 04:46 318 14.4
2020-Jul-07 04:31 296 14.4
2020-Jul-07 04:16 004 15.0
2020-Jul-07 04:02 271 15.6
2020-Jul-07 03:45 305 16.1
2020-Jul-07 03:31 202 16.1
2020-Jul-07 03:16 201 16.1
2020-Jul-07 03:01 202 16.7
2020-Jul-07 02:46 202 16.7
2020-Jul-07 02:31 202 17.2
2020-Jul-07 02:16 202 17.2
2020-Jul-07 02:01 202 17.8
2020-Jul-07 01:46 204 17.8
2020-Jul-07 01:31 205 17.8
2020-Jul-07 01:16 166 17.8
2020-Jul-07 01:01 166 17.8
2020-Jul-07 00:45 200 17.8
2020-Jul-07 00:32 200 18.3
2020-Jul-07 00:16 198 18.3
2020-Jul-07 00:00 205 18.3
2020-Jul-06 23:46 188 2 gusting 6 18.9
2020-Jul-06 23:31 211 0 gusting 5 18.9
2020-Jul-06 23:16 194 0 gusting 2 19.4
2020-Jul-06 22:45 175 0 gusting 5 19.4
2020-Jul-06 22:30 188 1 gusting 4 18.9
2020-Jul-06 22:16 195 1 gusting 6 18.9
2020-Jul-06 22:00 210 2 gusting 5 18.9
2020-Jul-06 21:46 173 1 gusting 3 18.3
2020-Jul-06 21:31 113 18.3
2020-Jul-06 21:15 151 18.9
2020-Jul-06 21:00 203 0 gusting 5 19.4
2020-Jul-06 20:45 173 0 gusting 5 18.3
2020-Jul-06 20:30 020 18.3
2020-Jul-06 20:15 190 18.9
2020-Jul-06 20:01 210 1 gusting 4 18.9
2020-Jul-06 19:45 221 2 gusting 6 18.9
2020-Jul-06 19:30 106 0 gusting 5 19.4
2020-Jul-06 19:15 096 0 gusting 7 18.3
2020-Jul-06 19:00 072 18.9
2020-Jul-06 18:45 127 0 gusting 3 18.9
2020-Jul-06 18:30 117 18.9
2020-Jul-06 18:15 202 18.9
2020-Jul-06 18:00 227 18.9
2020-Jul-06 17:45 103 18.3
2020-Jul-06 17:30 089 17.8
2020-Jul-06 17:15 116 17.2
2020-Jul-06 17:03 172 17.2
2020-Jul-06 16:46 115 0 gusting 2 16.7
2020-Jul-06 16:31 119 16.7
2020-Jul-06 16:16 245 16.1
2020-Jul-06 16:01 203 15.6
2020-Jul-06 15:46 205 15.0
2020-Jul-06 15:32 200 14.4
2020-Jul-06 15:16 291 13.9
2020-Jul-06 15:01 251 13.3
2020-Jul-06 14:46 304 12.2
2020-Jul-06 14:31 304 11.1
2020-Jul-06 14:17 304 10.6
2020-Jul-06 14:01 304 10.6
2020-Jul-06 13:47 304 10.0
2020-Jul-06 13:31 304 10.0
2020-Jul-06 13:15 304 9.4
2020-Jul-06 13:02 304 9.4
2020-Jul-06 12:46 304 9.4
2020-Jul-06 12:30 304 10.0
2020-Jul-06 12:16 304 10.0
2020-Jul-06 12:01 146 10.0
2020-Jul-06 11:45 223 10.0
2020-Jul-06 11:31 069 10.0
2020-Jul-06 11:15 224 9.4
2020-Jul-06 11:01 224 10.0
2020-Jul-06 10:45 224 10.0
2020-Jul-06 10:30 224 10.0
2020-Jul-06 10:15 224 10.0
2020-Jul-06 10:00 267 10.6
2020-Jul-06 09:45 267 11.1
2020-Jul-06 09:30 137 11.1
2020-Jul-06 09:15 266 11.1
2020-Jul-06 09:00 307 11.7
2020-Jul-06 08:45 320 11.7
2020-Jul-06 08:30 320 11.7
2020-Jul-06 08:15 320 12.2
2020-Jul-06 08:00 320 12.8
2020-Jul-06 07:46 313 13.3
2020-Jul-06 07:31 342 13.3
2020-Jul-06 07:17 291 13.9
2020-Jul-06 07:01 314 13.9
2020-Jul-06 06:46 321 12.8
2020-Jul-06 06:31 047 13.3
2020-Jul-06 06:18 068 13.3
2020-Jul-06 06:01 320 12.2
2020-Jul-06 05:46 162 12.2
2020-Jul-06 05:32 162 12.8
2020-Jul-06 05:16 162 12.8
2020-Jul-06 05:02 162 13.3
2020-Jul-06 04:46 162 13.9
2020-Jul-06 04:31 162 14.4
2020-Jul-06 04:16 162 15.0
2020-Jul-06 04:01 162 15.6